GW4137 Weather Reports


Display with metric or nautical units.
time (UTC)temp
F
wind
direction
speed
MPH
gust
MPH
rain 1hr
in
rain 24hr
in
rain mn
in
humidity
%
barometer
mb
20260509214552 64 0 0.0 9.0 0.00 0.00 0.00 40 1017.2
20260509213105 64 238 7.0 12.0 0.00 0.00 0.00 39 1017.3
20260509211601 64 281 5.0 14.0 0.00 0.00 0.00 38 1017.4
20260509210056 65 0 4.0 12.0 0.00 0.00 0.00 37 1017.3
20260509204552 63 209 7.0 14.0 0.00 0.00 0.00 40 1017.5
20260509203100 63 228 8.0 13.0 0.00 0.00 0.00 40 1017.5
20260509201550 63 205 1.0 9.0 0.00 0.00 0.00 40 1017.4
20260509200054 64 0 8.0 15.0 0.00 0.00 0.00 38 1017.3
20260509194600 63 222 2.0 11.0 0.00 0.00 0.00 40 1017.3
20260509193057 63 189 3.0 9.0 0.00 0.00 0.00 41 1017.4
20260509191606 62 232 5.0 11.0 0.00 0.00 0.00 41 1017.4
20260509190057 61 221 1.0 5.0 0.00 0.00 0.00 41 1017.4
20260509184600 61 0 0.0 5.0 0.00 0.00 0.00 40 1017.4
20260509183058 61 0 2.0 7.0 0.00 0.00 0.00 39 1017.4
20260509181555 61 0 0.0 5.0 0.00 0.00 0.00 40 1017.4
20260509180110 61 0 2.0 6.0 0.00 0.00 0.00 39 1017.1
20260509174549 60 140 0.0 7.0 0.00 0.00 0.00 40 1017.1
20260509173059 61 138 2.0 7.0 0.00 0.00 0.00 40 1017.1
20260509171552 60 0 1.0 9.0 0.00 0.00 0.00 39 1017.0
20260509170050 60 76 6.0 8.0 0.00 0.00 0.00 39 1017.0
20260509164548 60 57 2.0 5.0 0.00 0.00 0.00 42 1017.0
20260509163053 60 0 1.0 8.0 0.00 0.00 0.00 41 1017.0
20260509161559 60 103 1.0 7.0 0.00 0.00 0.00 42 1016.8
20260509160049 60 0 1.0 4.0 0.00 0.00 0.00 43 1016.6
20260509154554 59 102 5.0 9.0 0.00 0.00 0.00 44 1016.5
20260509153103 59 91 2.0 8.0 0.00 0.00 0.00 45 1016.3
20260509151550 59 100 3.0 10.0 0.00 0.00 0.00 45 1016.3
20260509150053 58 117 4.0 10.0 0.00 0.00 0.00 46 1016.0
20260509144554 58 79 4.0 6.0 0.00 0.00 0.00 45 1016.0
20260509143058 57 325 3.0 6.0 0.00 0.00 0.00 47 1015.9
20260509141552 56 23 2.0 5.0 0.00 0.00 0.00 49 1015.8
20260509140109 55 23 0.0 5.0 0.00 0.00 0.00 51 1015.8
20260509134555 54 23 0.0 3.0 0.00 0.00 0.00 55 1015.7
20260509133058 53 0 1.0 5.0 0.00 0.00 0.00 58 1015.6
20260509131556 52 0 0.0 6.0 0.00 0.00 0.00 57 1015.5
20260509130050 52 53 6.0 10.0 0.00 0.00 0.00 56 1015.3
20260509124554 52 0 0.0 8.0 0.00 0.00 0.00 59 1014.9
20260509123055 52 0 2.0 5.0 0.00 0.00 0.00 58 1014.7
20260509121555 51 0 0.0 0.0 0.00 0.00 0.00 59 1014.7
20260509120055 51 319 3.0 8.0 0.00 0.00 0.00 62 1014.5
20260509114555 51 0 0.0 3.0 0.00 0.00 0.00 62 1014.4
20260509113057 52 0 0.0 4.0 0.00 0.00 0.00 61 1014.2
20260509111558 52 0 3.0 7.0 0.00 0.00 0.00 60 1013.9
20260509110054 52 325 3.0 6.0 0.00 0.00 0.00 61 1013.8
20260509104606 52 329 3.0 5.0 0.00 0.00 0.00 62 1013.7
20260509103107 51 0 0.0 3.0 0.00 0.00 0.00 62 1013.5
20260509101622 52 0 0.0 1.0 0.00 0.00 0.00 59 1013.3
20260509100059 52 0 0.0 8.0 0.00 0.00 0.00 53 1013.2
20260509094601 52 328 3.0 5.0 0.00 0.00 0.00 52 1013.1
20260509093058 52 325 0.0 3.0 0.00 0.00 0.00 53 1012.9
20260509091556 52 0 2.0 4.0 0.00 0.00 0.00 54 1012.9
20260509090058 51 0 0.0 3.0 0.00 0.00 0.00 56 1012.8
20260509084600 52 0 0.0 2.0 0.00 0.00 0.00 56 1012.5
20260509083106 52 325 4.0 6.0 0.00 0.00 0.00 58 1012.7
20260509081552 53 325 1.0 4.0 0.00 0.00 0.00 53 1012.5
20260509080052 53 325 2.0 4.0 0.00 0.00 0.00 49 1012.5
20260509074608 55 325 2.0 5.0 0.00 0.00 0.00 48 1012.5
20260509073103 56 325 1.0 4.0 0.00 0.00 0.00 47 1012.4
20260509071556 56 0 0.0 1.0 0.00 0.00 0.00 45 1012.3
20260509070056 57 0 1.0 10.0 0.00 0.00 0.00 51 1012.2
20260509064550 57 330 2.0 10.0 0.00 0.00 0.00 50 1012.2
20260509063059 57 344 4.0 10.0 0.00 0.00 0.00 43 1012.2
20260509061549 57 345 5.0 10.0 0.00 0.00 0.00 42 1012.1
20260509060108 59 352 11.0 19.0 0.00 0.00 0.00 49 1011.9
20260509054552 59 316 12.0 22.0 0.00 0.00 0.00 47 1011.6
20260509053102 59 306 10.0 17.0 0.00 0.00 0.00 49 1011.5
20260509051558 60 285 19.0 30.0 0.00 0.00 0.00 48 1011.0
20260509050050 61 288 13.0 24.0 0.00 0.00 0.00 44 1010.8
20260509044552 61 283 10.0 21.0 0.00 0.00 0.00 42 1010.4
20260509043053 62 287 8.0 15.0 0.00 0.00 0.00 40 1010.5
20260509041550 63 288 2.0 13.0 0.00 0.00 0.00 35 1010.7
20260509040106 64 330 4.0 12.0 0.00 0.00 0.00 28 1010.7
20260509034550 63 320 1.0 6.0 0.00 0.00 0.00 28 1010.3
20260509033109 61 5 0.0 4.0 0.00 0.00 0.00 28 1009.9
20260509031550 62 5 0.0 0.0 0.00 0.00 0.00 27 1009.6
20260509030053 64 0 0.0 0.0 0.00 0.00 0.00 26 1009.3
20260509024603 64 0 0.0 1.0 0.00 0.00 0.00 25 1009.0
20260509023056 65 5 2.0 6.0 0.00 0.00 0.00 25 1008.6
20260509021553 67 5 4.0 10.0 0.00 0.00 0.00 23 1008.4
20260509020105 68 360 11.0 16.0 0.00 0.00 0.00 22 1008.1
20260509014554 69 352 12.0 18.0 0.00 0.00 0.00 21 1008.0
20260509013052 70 344 11.0 18.0 0.00 0.00 0.00 20 1008.1
20260509011601 70 352 12.0 18.0 0.00 0.00 0.00 20 1008.1
20260509010059 70 333 15.0 19.0 0.00 0.00 0.00 20 1008.0
20260509004553 71 340 15.0 21.0 0.00 0.00 0.00 19 1008.1
20260509003056 71 340 14.0 23.0 0.00 0.00 0.00 20 1008.1
20260509001550 72 330 16.0 24.0 0.00 0.00 0.00 18 1008.0
20260509000052 72 342 18.0 26.0 0.00 0.00 0.00 18 1008.0
20260508234604 72 304 13.0 27.0 0.00 0.00 0.00 18 1008.0
20260508233105 72 319 20.0 31.0 0.00 0.00 0.00 17 1008.0
20260508231550 73 327 22.0 31.0 0.00 0.00 0.00 18 1008.0
20260508230057 73 319 15.0 25.0 0.00 0.00 0.00 18 1007.8
20260508224556 74 331 18.0 29.0 0.00 0.00 0.00 18 1008.0
20260508223055 74 346 20.0 29.0 0.00 0.00 0.00 19 1008.0
20260508221600 73 323 17.0 30.0 0.00 0.00 0.00 20 1007.9
20260508220055 74 326 16.0 26.0 0.00 0.00 0.00 19 1007.9